202  
ASUS41 KBOX 280010  
RWRBOX  
 
REGIONAL WEATHER ROUNDUP  
NATIONAL WEATHER SERVICE BOSTON/NORTON MA  
800 PM EDT TUE SEP 27 2022  
 
NOTE: "FAIR" INDICATES FEW OR NO CLOUDS BELOW 12,000 FEET WITH NO  
SIGNIFICANT WEATHER AND/OR S TO VISIBILITY
.  
 
MAZALL-280100-  
EASTERN MASSACHUSETTS  
 
CITY SKY/WX TMP DP RH WIND PRES REMARKS
 
BOSTON PTCLDY 65 46 50 SW10 29.85R  
6HR MIN TEMP: 65; 6HR MAX TEMP: 75;  
 
BEVERLY CLEAR 62 45 53 W6 29.84R  
LAWRENCE CLEAR 63 47 55 W5 29.86R  
BEDFORD CLEAR 59 48 67 SW3 29.84R  
NORWOOD CLEAR 55 49 80 CALM 29.86R  
MARSHFIELD CLEAR 57 48 72 SW3 29.85R  
PLYMOUTH CLEAR 61 50 67 S3 29.86R  
TAUNTON N/A N/A N/A N/A MISG 29.86R  
NEW BEDFORD CLEAR 57 52 83 SW5 29.86R  

 
 
MAZALL-280100-  
CAPE COD AND THE ISLANDS  
 
CITY SKY/WX TMP DP RH WIND PRES REMARKS
 
FALMOUTH CLEAR 61 52 72 SW8 29.87R  
HYANNIS CLEAR 64 54 69 SW9 29.87R  
CHATHAM CLEAR 65 53 65 SW8 29.89R  
PROVINCETOWN CLEAR 63 56 78 SW10 29.87R  
NANTUCKET CLEAR 65 59 81 SW10 29.90R  
MARTHAS VNYRD CLEAR 60 53 77 SW5 29.89R  

 
 
MAZALL-280100-  
CENTRAL AND WESTERN MASSACHUSETTS  
 
CITY SKY/WX TMP DP RH WIND PRES REMARKS
 
WORCESTER CLEAR 56 48 74 W9 29.88R  
6HR MIN TEMP: 56; 6HR MAX TEMP: 68;  
 
FITCHBURG CLEAR 57 47 69 SW3 29.87R  
ORANGE CLEAR 57 48 72 S5 29.88R  
SPRINGFIELD PTCLDY 57 47 69 SW5 29.85R  
WESTFIELD CLEAR 56 48 74 S6 29.87R  
NORTH ADAMS LGT RAIN 56 54 93 S5 29.88R  
PITTSFIELD CLOUDY 57 47 69 SW8 29.88R  

 
 
RIZALL-280100-  
RHODE ISLAND  
 
CITY SKY/WX TMP DP RH WIND PRES REMARKS
 
PROVIDENCE CLEAR 59 50 72 SW7 29.88R  
6HR MIN TEMP: 59; 6HR MAX TEMP: 73;  
 
NEWPORT CLEAR 62 53 72 VRB3 29.88R  
BLOCK ISLAND CLEAR 63 52 67 W15G22 29.90R  
SMITHFIELD PTCLDY 57 50 77 W7 29.88R  
WESTERLY CLEAR 64 49 57 VRB6 29.89R  

 
 
CTZALL-280100-  
CONNECTICUT  
 
CITY SKY/WX TMP DP RH WIND PRES REMARKS
 
BRADLEY INTL PTCLDY 60 48 64 SW8 29.89R  
6HR MIN TEMP: 60; 6HR MAX TEMP: 72;  
 
HARTFORD PTCLDY 62 47 57 CALM 29.89R  
BRIDGEPORT CLEAR 62 48 60 W8 29.91R  
DANBURY CLEAR 53 48 83 W5 29.93R  
GROTON CLEAR 65 49 56 NW10 29.89R  
NEW HAVEN CLEAR 66 50 56 W6 29.91R  
CHESTER FAIR 59 50 72 CALM 29.91R  
MERIDEN CLEAR 55 49 80 SW3 29.91R  
WILLIMANTIC CLEAR 60 49 66 CALM 29.92R  
OXFORD CLEAR 55 48 77 SW5 29.92R  

 
 
MEZ002-015-021-024-NHZ003-005-008-011-012-014-VTZ005-008-280100-  
NORTHERN NEW ENGLAND  
 
CITY SKY/WX TMP DP RH WIND PRES REMARKS
 
PORTLAND ME CLEAR 56 54 93 S3 29.82R  
6HR MIN TEMP: 56; 6HR MAX TEMP: 70;  
 
BANGOR ME CLEAR 59 50 72 S9 29.81R  
CONCORD NH MOCLDY 57 51 80 CALM 29.84R  
MANCHESTER NH PTCLDY 60 48 64 S5 29.84R  
NASHUA NH PTCLDY 61 50 67 CALM 29.86R  
PORTSMOUTH NH CLEAR 61 47 59 SW5 29.83R  
JAFFREY NH PTCLDY 55 50 83 S3 29.88R  
KEENE NH CLOUDY 55 53 93 S3 N/A  
BURLINGTON VT CLOUDY 58 52 80 S7 29.82R  
MT. WASHINGTON FOG 36 36 100 W35G40 N/A VSB 0 WCI 22  

 
 
NYZ052-076-280100-  
EASTERN NEW YORK  
 
CITY SKY/WX TMP DP RH WIND PRES REMARKS
 
ALBANY CLOUDY 59 52 77 CALM 29.87R  
6HR MIN TEMP: 58; 6HR MAX TEMP: 67; 6HR PCP: TRACE;  
 
NEW YORK CITY PTCLDY 66 45 46 W8 29.91R  
6HR MIN TEMP: 66; 6HR MAX TEMP: 71;  
 

 
 
ANZALL-280100-  
MARINE OBSERVATIONS  
 
STATION/POSITION TIME TEMP WIND PRES VSBY WAVE
 
AIR SEA DIR/SP/G HT/PER  
(UTC) (F) (DEG/KT/KT) (MB) (MI) (FT/S)  
BOSTON BUOY 2350 61 220/ 8/ 10 1011.1R 2/ 9  
BUZZARDS BAY 2300 65 250/ 24/ 27 1011.2S  
NANTUCKET SOUND 2350 67 67 230/ 14/ 16 1011.7R 2/ 3  
MASS BAY-STELLWA 2204 66 62 240/ 14/ 16 1008.7R 1 7/8 2/ 4  
ISLE OF SHOALS 2300 68 240/ 14/ 14 1008.9R  
S OF BLOCK IS 2356 67 N/A 5/ 5  

 
   
.....................KEY......................
 
 
SKY/WX - SKY CONDITION/PRESENT WEATHER  
TMP - TEMPERATURE IN FAHRENHEIT  
DWPT - DEWPOINT IN FAHRENHEIT  
RH - RELATIVE HUMIDITY IN PERCENT  
WIND - DIRECTION AND SPEED IN MPH  
PRES - MEAN SEA LEVEL PRESSURE IN INCHES OF HG  
WCI - WIND CHILL INDEX  
VSB - VISIBILITY IN MILES  
HX - HEAT INDEX  
TC - TEMPERATURE IN CELSIUS  
VRB - VARIABLE WIND DIRECTION  
N/A - NOT AVAILABLE  
 
 
CLICK HERE TO GO TO PREVIOUS BULLETINS.

The Nexlab MA Page
The Nexlab RI Page
The Nexlab NH Page
The Nexlab CT Page Main Text Page